Lapse_Rate
3.8 3.7 3.6 3.9 4.1 4.6 5.7 6.5 7.0 7.4 7.3 7.2 7.0 6.5 6.5 6.5 6.1 6.3 7.0 6.9 7.2 7.2 6.9 6.5 6.2 6.0 5.5 5.4 4.7 4.9 4.6 4.6 4.7 5.1 6.2 6.4 6.3 6.5 6.5 6.9 7.2 7.4 6.9 6.8 6.4
3.7 3.8 3.8 3.9 4.2 4.5 5.5 6.5 6.9 7.2 7.0 6.9 6.5 6.4 6.2 6.4 6.3 6.4 6.2 6.5 6.9 7.1 6.9 6.9 6.8 6.7 6.1 5.9 5.2 4.8 5.1 5.4 5.2 5.1 6.0 6.3 6.2 6.3 6.3 6.8 7.1 6.9 7.0 6.9 6.7
3.7 3.9 4.0 4.1 4.2 4.5 5.1 6.2 6.8 7.0 6.6 6.4 6.2 6.0 6.1 6.2 6.0 6.0 6.4 6.6 6.9 6.9 6.9 6.9 6.2 6.4 6.1 5.8 6.0 5.5 5.3 5.7 5.8 5.7 6.1 6.4 6.1 6.4 6.6 7.0 7.1 7.1 7.1 6.9 7.3
3.9 4.0 4.2 4.3 4.4 4.4 4.8 5.7 6.5 6.8 6.6 6.2 6.0 6.0 5.9 6.0 5.9 6.4 6.4 6.6 6.8 6.9 6.8 6.7 6.4 6.2 5.9 6.4 6.4 5.8 5.7 5.8 5.9 6.1 5.6 6.5 6.5 6.5 6.7 7.1 7.0 7.1 7.2 7.4 7.2
4.0 4.2 4.3 4.4 4.5 4.4 4.6 5.3 6.1 6.7 6.4 6.1 5.9 5.7 5.8 5.9 6.2 6.4 6.6 6.6 6.9 6.9 7.0 7.0 7.0 7.0 6.7 6.6 6.7 6.5 6.4 6.2 6.2 6.1 6.2 6.3 6.4 6.4 6.6 7.1 7.1 7.3 7.2 7.1 7.2
4.1 4.3 4.4 4.6 4.6 4.6 4.7 5.0 5.7 6.4 6.4 6.4 6.2 5.9 5.8 6.0 6.2 6.4 6.5 6.6 6.8 6.9 6.8 7.1 7.2 7.2 7.4 7.4 6.7 6.7 7.1 6.5 6.4 6.3 6.3 6.5 6.4 6.5 6.7 7.1 7.2 7.3 7.2 7.1 7.2
4.2 4.3 4.5 4.6 4.6 4.7 4.7 4.9 5.3 5.9 6.4 6.4 6.2 5.9 5.8 5.9 6.2 6.3 6.3 6.6 6.7 6.8 7.0 7.3 7.1 7.0 6.7 7.0 6.6 6.6 6.2 6.2 6.5 6.7 6.6 6.6 6.2 6.5 6.9 7.4 7.2 7.1 7.2 7.1 6.9
4.5 4.5 4.7 4.6 4.8 4.8 4.8 4.9 5.1 5.4 6.0 6.4 6.4 6.1 6.0 6.0 6.1 6.2 6.5 6.5 6.6 6.7 6.8 6.8 6.7 6.8 6.6 6.4 6.7 6.6 6.8 6.5 6.5 6.6 6.6 7.1 6.9 7.5 7.4 7.4 7.2 7.0 7.0 7.2 6.9
4.7 4.7 4.7 4.8 4.8 4.9 4.9 4.9 5.0 5.1 5.6 6.0 6.4 6.4 6.1 6.1 6.3 6.3 6.5 6.6 6.7 6.7 6.6 6.3 6.4 6.6 6.6 6.3 6.6 6.4 6.4 6.8 6.8 6.8 6.9 6.8 7.1 7.1 7.1 7.3 7.5 7.2 6.9 6.9 7.1
4.7 4.7 4.8 4.9 4.9 4.9 5.1 5.1 5.0 5.1 5.4 5.5 6.0 6.3 6.2 6.3 6.3 6.4 6.4 6.6 6.6 6.7 6.4 6.2 6.3 6.2 6.2 6.2 6.0 6.1 6.5 7.0 7.2 7.5 7.5 7.1 7.1 7.2 7.2 6.9 6.9 6.9 6.8 6.9 6.7
4.8 4.8 4.9 4.9 5.0 5.0 5.1 5.3 5.0 5.3 5.2 5.2 5.6 6.2 6.6 6.3 6.3 6.1 6.4 6.5 6.6 6.6 6.7 6.6 6.2 6.1 6.4 6.5 6.7 6.9 7.0 7.1 7.2 7.3 7.3 7.3 7.4 7.3 7.0 6.8 6.8 6.7 6.8 6.8 6.9
4.6 4.7 4.7 4.8 4.9 5.0 5.1 5.2 5.2 4.9 4.9 5.1 5.3 5.7 6.1 6.1 6.2 6.1 6.3 6.3 6.6 6.9 6.7 6.5 6.0 6.8 7.0 7.0 7.0 7.1 7.1 7.1 7.2 7.2 7.0 7.1 7.2 7.2 6.8 6.9 6.7 6.4 6.2 6.5 6.6
4.6 4.6 4.7 4.7 4.8 4.9 5.0 5.1 5.2 5.4 5.3 5.0 5.1 5.3 5.6 5.9 6.2 6.2 6.2 6.3 6.5 6.4 6.7 6.7 7.3 7.3 7.0 6.9 6.8 6.8 6.9 7.1 7.2 7.2 7.0 6.7 6.8 7.2 7.4 7.3 7.0 6.9 6.6 6.4 6.5
4.4 4.5 4.6 4.7 4.7 4.8 4.8 5.1 5.1 5.2 5.0 5.0 4.8 5.3 5.5 5.9 6.2 6.2 6.3 6.0 6.0 6.5 6.6 6.0 6.9 6.8 6.8 6.6 6.9 6.7 7.2 7.4 7.4 7.1 6.6 7.0 5.8 6.8 7.3 7.4 7.3 7.1 7.0 6.9 6.9
4.7 4.3 4.4 4.2 4.4 4.8 4.8 4.7 4.9 4.9 3.9 4.9 4.9 5.2 5.3 5.7 6.1 6.3 6.3 6.2 6.1 6.6 6.6 5.9 7.0 6.7 6.5 6.8 7.3 6.9 7.7 7.6 7.4 7.4 7.3 6.9 5.9 5.9 6.7 6.9 7.5 7.8 7.8 7.5 7.1
4.4 4.5 4.3 4.4 4.3 4.6 4.7 4.7 4.7 4.7 3.9 5.0 5.0 5.1 5.2 5.5 5.9 6.2 6.3 6.4 6.3 6.1 6.3 6.1 6.5 6.8 6.6 7.2 7.2 7.3 7.3 7.5 7.5 7.2 6.7 6.5 6.6 5.8 6.0 6.7 7.6 8.0 7.9 7.7 7.2
4.2 4.2 4.3 4.2 4.3 4.4 4.5 4.5 4.4 4.3 5.1 4.9 4.9 5.1 5.1 5.5 5.8 6.2 6.4 6.4 6.6 6.4 6.3 6.5 6.5 7.0 7.0 6.8 7.2 7.0 7.2 7.0 6.7 6.6 6.6 7.2 6.6 5.3 6.7 7.2 7.7 7.9 8.1 7.9 7.5
4.1 4.0 4.0 4.2 4.1 4.2 4.2 4.1 4.0 4.9 5.1 5.0 5.0 5.0 5.1 5.7 6.0 6.1 6.2 6.4 6.5 6.7 6.6 6.5 6.6 7.0 7.0 6.8 7.1 7.2 6.8 7.2 7.2 6.9 6.5 7.4 5.9 6.0 7.0 7.4 7.6 7.7 7.9 7.6 7.3
3.9 4.2 3.9 4.0 4.1 4.0 3.8 3.8 4.7 5.0 5.2 5.4 5.2 5.2 5.4 5.7 5.5 6.0 6.3 6.5 6.8 6.8 6.9 6.9 6.8 7.1 7.4 7.6 7.3 6.6 6.8 6.9 7.2 7.4 7.0 7.3 6.9 7.0 7.1 7.3 7.7 7.8 7.7 7.9 8.0
3.7 3.9 3.9 3.7 3.8 3.6 3.5 4.0 4.3 4.6 4.8 5.1 5.3 5.7 5.7 5.8 5.9 6.0 6.2 6.4 6.8 6.9 6.9 6.9 6.9 7.1 6.8 7.2 6.9 6.7 7.0 6.6 6.7 7.0 7.0 6.6 6.7 7.0 7.3 7.5 7.8 8.1 7.8 7.7 7.8
3.3 3.4 3.6 3.7 3.5 3.4 3.5 4.0 4.2 4.3 4.5 4.7 4.9 5.2 5.8 6.0 5.9 5.6 5.8 6.6 6.9 7.2 6.8 6.7 6.4 6.8 6.5 6.8 6.8 6.7 6.5 6.6 6.6 6.8 7.0 6.9 6.9 7.1 7.3 7.6 8.1 8.4 8.2 8.1 8.1
3.0 3.3 3.4 3.5 3.5 3.4 3.9 4.0 4.0 4.1 4.3 4.5 4.8 5.2 5.5 6.0 5.7 5.6 5.6 6.2 6.5 6.9 7.0 6.8 6.3 6.3 6.8 7.2 6.6 6.8 6.6 7.0 6.8 6.9 6.8 7.3 7.0 7.5 7.5 7.5 7.6 7.9 8.3 8.4 8.4
3.2 3.6 3.7 3.8 3.5 3.5 3.7 3.9 3.9 4.2 4.5 4.4 4.8 5.0 5.3 5.4 5.5 5.5 6.0 6.1 6.2 6.5 6.9 6.8 6.7 6.4 6.5 6.9 7.0 6.7 6.4 6.4 6.5 6.6 6.5 6.7 6.5 7.3 7.6 7.8 8.1 8.2 8.1 8.3 8.2
3.0 3.2 3.5 4.0 3.6 3.6 3.9 4.2 4.6 4.7 4.8 5.1 5.1 5.3 5.2 5.3 5.7 5.0 5.7 5.9 6.0 6.5 6.7 6.9 6.6 6.5 6.3 6.7 6.5 6.2 6.2 5.8 5.8 5.9 6.1 6.0 6.4 7.2 7.4 7.7 8.2 8.4 8.5 8.1 7.8
3.1 3.2 3.5 3.9 4.0 3.7 4.3 4.6 4.5 4.7 5.1 5.2 5.1 5.5 5.5 5.2 5.3 5.9 6.5 6.3 6.1 6.2 6.4 6.5 6.4 6.7 6.7 6.4 6.3 5.9 5.9 6.1 5.6 6.2 6.0 6.1 6.1 6.4 6.4 7.6 7.9 8.0 8.1 7.9 8.0
2.4 2.9 3.5 3.7 3.5 3.6 4.2 4.0 4.4 4.9 5.1 5.1 5.1 5.1 5.2 5.1 5.3 4.9 5.8 6.2 6.3 6.2 6.5 6.5 5.9 6.6 6.4 6.9 6.6 5.9 5.9 6.0 5.9 6.0 6.2 6.2 6.1 6.6 6.2 6.5 7.2 7.6 7.6 7.8 7.9
2.8 3.1 3.3 3.5 3.7 3.7 4.0 3.9 4.0 4.3 4.5 5.1 5.1 5.0 5.0 5.3 5.4 5.4 5.5 6.0 6.3 6.2 6.3 6.2 6.5 6.7 6.1 6.8 6.5 5.8 6.3 6.8 7.0 7.1 6.5 6.6 6.8 6.2 6.4 6.2 6.8 7.2 7.5 7.5 7.4
Wind_Speed
17 16 15 15 14 13 12 12 13 13 14 14 14 12 11 14 9 4 8 7 7 13 3 1 2 4 4 5 4 5 2 3 4 4 4 3 4 3 4 7 4 5 3 6 7
15 16 16 15 13 13 13 13 14 12 13 15 15 14 11 11 2 6 8 13 13 4 4 5 7 7 4 5 5 6 6 8 5 4 2 3 4 5 4 4 4 5 8 8 9
17 16 15 16 14 13 12 12 12 13 12 13 15 15 15 8 2 4 12 22 14 11 4 3 2 4 4 4 4 5 9 5 3 2 3 4 3 4 10 1 4 7 10 9 10
17 17 16 15 14 12 12 11 10 11 10 11 13 13 15 2 2 3 5 7 19 10 5 5 4 4 4 5 4 4 3 2 1 4 4 3 5 5 4 3 5 14 11 8 10
18 17 16 16 14 12 11 9 9 9 10 9 13 15 5 2 6 4 7 5 13 7 7 6 5 6 6 6 6 4 3 3 6 6 5 7 4 6 4 6 8 11 10 10 9
19 18 16 15 14 13 12 11 8 7 5 9 11 12 2 3 2 7 2 4 5 8 5 6 7 7 6 3 5 4 5 5 3 3 2 5 3 2 5 7 9 9 9 8 8
20 20 18 15 14 13 13 11 8 5 5 7 9 5 4 10 5 12 5 5 7 8 5 5 1 1 3 5 6 9 6 3 2 4 2 7 2 5 7 11 11 9 7 7 7
21 21 20 17 14 13 13 11 9 7 6 6 6 2 5 5 9 6 3 2 5 5 1 4 2 4 3 7 5 5 4 3 4 5 1 0 5 3 12 13 11 10 9 7 6
22 21 21 18 15 14 14 14 11 8 7 6 2 2 7 8 3 7 6 4 5 2 3 4 2 5 3 6 4 2 4 4 4 6 5 3 5 5 11 11 11 11 10 9 7
22 22 21 18 16 14 15 11 5 4 4 4 0 1 4 1 2 5 2 7 3 4 1 4 2 3 3 4 9 5 4 4 7 8 3 4 10 4 9 11 10 10 10 10 10
22 21 21 17 16 15 8 3 3 1 3 5 2 3 3 2 0 1 1 3 3 4 5 3 3 8 7 6 6 7 5 7 2 8 6 15 9 10 10 11 11 11 11 10 11
24 23 20 18 20 17 2 4 2 1 6 8 12 10 6 3 2 3 4 4 4 5 4 1 9 6 7 6 6 7 7 6 2 5 7 5 15 6 14 12 15 14 13 14 12
23 22 20 19 19 5 2 2 2 2 3 6 5 5 4 4 4 6 8 3 3 4 7 7 3 7 5 4 7 7 7 4 3 4 2 4 6 5 6 3 11 11 12 13 19
25 21 18 20 3 3 1 5 7 1 3 4 3 3 5 4 5 6 7 6 3 11 3 6 5 8 13 11 10 14 7 8 6 6 6 8 7 6 6 9 11 15 16 18 16
22 22 18 12 2 0 2 7 6 1 4 5 3 1 4 5 3 3 3 2 6 6 6 7 5 11 12 20 8 11 6 11 7 12 4 4 3 5 7 9 16 21 22 17 16
24 21 16 2 1 4 5 4 2 1 6 4 4 4 4 3 3 1 2 2 3 3 4 8 3 7 14 11 15 4 4 3 3 4 8 13 9 8 8 10 8 13 20 20 18
28 21 6 4 3 2 3 2 2 3 1 4 4 5 6 5 5 5 5 4 6 4 7 2 11 6 5 10 7 11 8 6 6 7 11 13 8 22 7 10 14 16 21 20 19
30 20 3 5 6 2 1 1 4 2 2 2 3 2 6 6 6 7 4 5 5 4 2 6 6 16 7 19 14 16 17 7 7 6 5 7 11 8 6 3 4 4 13 16 18
20 2 2 3 10 1 2 2 4 2 1 3 5 3 3 2 5 2 4 4 4 12 8 4 7 4 11 21 18 6 15 22 11 4 2 6 6 5 1 5 3 10 15 17 16
2 3 3 3 7 2 1 4 4 1 2 2 2 2 2 4 2 1 3 2 2 2 8 2 6 8 7 7 16 17 6 8 8 7 12 7 6 6 5 10 8 13 15 15 15
2 2 2 5 2 2 3 5 4 1 2 3 2 3 3 2 3 3 4 3 1 2 1 2 3 3 3 4 14 12 15 12 5 6 10 11 10 9 13 14 18 15 16 17 17
3 2 1 2 0 2 2 4 3 3 1 2 3 5 6 4 3 4 6 4 2 2 2 4 2 4 12 9 7 6 18 23 8 13 12 16 16 1 1 4 11 13 16 15 16
2 3 2 3 2 2 4 5 3 3 3 2 2 2 1 3 2 4 3 3 3 2 2 2 3 2 7 2 3 2 2 3 8 2 15 11 17 6 3 8 10 18 17 17 17
2 3 3 1 0 3 3 4 3 5 3 3 3 2 3 4 5 4 2 2 2 3 7 5 3 5 5 6 0 8 6 6 8 1 4 7 14 4 3 10 14 16 17 17 17
2 3 3 3 2 1 2 3 5 6 3 3 2 1 1 2 2 3 2 4 1 3 1 2 4 4 8 8 5 11 15 12 12 6 8 9 11 5 10 13 16 17 18 19 18
3 3 4 3 3 1 2 2 2 4 2 2 2 2 2 4 4 3 1 2 5 2 3 2 3 2 8 8 10 14 11 12 14 15 11 9 17 6 7 11 12 18 19 19 18
2 2 1 4 3 1 2 2 1 3 0 2 3 3 4 3 2 5 5 5 4 2 3 5 4 2 5 3 7 6 9 16 14 8 11 10 9 4 7 15 16 18 23 23 22
Wind_Direction
359 357 353 351 349 342 346 338 338 339 337 333 340 339 333 331 317 165 226 226 206 251 257 154 175 164 131 165 169 60 39 243 274 342 13 168 108 39 66 96 65 25 40 97 109
355 353 349 343 342 341 337 339 332 336 333 327 332 330 321 328 247 231 227 227 236 245 157 176 183 147 165 179 172 152 206 204 189 220 20 66 82 131 134 116 74 78 85 100 98
351 347 348 341 338 338 336 332 333 325 324 323 320 325 321 325 287 246 210 228 225 199 157 121 161 154 169 161 175 189 218 170 191 294 139 133 93 11 134 118 185 164 148 120 112
348 347 344 339 337 333 330 322 321 322 316 316 311 322 320 169 235 244 220 201 213 176 134 142 148 169 165 175 190 127 7 83 112 334 86 109 107 77 15 86 87 123 134 125 114
346 346 342 339 334 330 324 318 314 315 316 310 317 327 333 263 259 216 217 234 182 160 172 185 167 164 182 184 139 114 166 72 91 77 86 100 53 138 105 106 105 121 126 127 118
351 345 342 338 334 328 324 314 306 302 288 305 317 333 293 265 170 8 57 161 179 154 174 176 195 208 173 158 147 128 99 97 79 118 115 111 119 356 169 143 139 139 133 128 126
349 343 338 334 330 329 322 313 301 279 281 296 299 302 267 245 306 334 281 181 167 170 165 200 188 260 130 112 138 134 97 98 193 188 144 148 159 218 145 163 159 154 147 141 137
348 343 337 330 328 326 324 309 289 276 274 269 254 255 251 261 293 293 290 62 151 167 203 130 181 271 131 119 94 89 78 147 162 170 137 359 260 109 156 164 170 168 168 164 170
349 345 343 339 328 318 315 306 290 266 240 239 184 152 268 311 282 273 185 164 158 172 173 272 197 187 101 113 100 151 166 208 315 204 135 188 268 144 173 180 177 182 180 179 177
349 346 345 339 330 326 322 313 299 304 197 187 89 191 262 263 295 324 159 137 155 136 80 187 168 149 103 174 194 169 199 200 196 198 169 165 259 159 190 195 193 186 188 187 202
346 347 347 344 339 332 350 24 15 284 260 223 218 248 147 258 306 319 331 114 105 96 167 212 169 204 191 193 162 173 191 209 231 170 144 201 230 197 186 204 200 195 193 195 201
347 345 345 343 334 327 318 73 83 304 301 248 260 266 280 163 293 248 125 160 164 182 152 137 227 194 202 207 193 184 197 219 249 176 178 170 244 153 180 215 206 192 196 194 180
346 343 340 338 330 353 9 52 328 13 276 286 214 206 202 163 232 229 149 159 171 170 197 200 192 164 182 215 217 232 205 169 218 119 247 118 278 236 218 204 202 213 207 198 190
341 339 335 332 37 326 28 319 329 294 356 252 208 239 151 147 271 208 166 157 188 200 196 239 229 191 209 223 190 234 189 210 167 142 223 164 265 243 202 214 211 211 203 202 194
340 335 331 328 272 23 265 325 320 46 339 156 181 130 156 183 307 242 157 178 197 186 158 210 212 205 223 223 187 237 199 221 176 200 154 175 258 233 145 212 225 218 212 201 190
335 332 327 80 224 247 318 321 60 56 259 192 144 172 132 224 246 52 127 44 193 240 220 227 251 205 226 224 217 166 103 73 126 172 232 201 198 216 186 202 230 210 206 196 179
331 323 297 291 232 317 333 67 62 188 37 183 203 174 200 204 216 197 190 188 198 190 231 205 233 247 186 227 213 198 190 228 207 206 247 168 194 245 219 213 211 207 198 183 169
329 318 245 224 223 339 84 77 218 205 258 6 41 248 192 194 234 206 196 237 240 226 241 211 259 215 199 216 213 201 199 214 229 214 213 174 224 239 211 231 292 221 164 159 161
329 355 280 262 222 139 105 176 234 236 20 11 325 245 274 261 213 135 226 219 231 199 225 242 238 253 209 216 202 204 215 226 267 242 196 213 279 299 305 272 116 135 147 159 156
354 339 259 147 136 83 130 248 245 175 94 44 213 337 305 341 9 26 207 243 231 276 222 267 268 258 271 228 225 216 191 207 224 219 238 237 244 227 230 223 161 158 159 153 147
26 5 269 128 83 59 233 242 285 158 170 197 225 279 240 272 203 213 230 278 227 148 47 88 238 284 15 249 222 213 228 232 237 202 233 251 247 195 203 198 187 172 157 152 148
2 333 313 97 57 226 230 236 311 233 189 244 214 223 223 221 245 234 228 228 47 117 230 194 253 242 258 222 186 325 237 214 218 210 228 240 247 7 3 144 142 142 142 141 140
18 270 329 100 233 235 292 290 286 249 217 211 237 171 51 212 294 207 227 171 156 138 240 104 248 307 322 289 53 208 7 291 287 252 226 220 252 341 118 114 133 140 145 143 139
72 341 323 27 160 286 287 269 288 340 274 236 238 225 221 236 221 266 248 184 140 199 189 178 249 228 254 250 1 285 290 282 225 234 321 288 286 310 224 155 147 147 145 146 146
34 213 164 278 242 348 307 302 278 294 261 235 283 255 207 266 291 250 315 345 226 169 147 208 245 234 260 276 283 279 285 278 263 272 229 266 260 250 232 194 167 149 146 147 149
351 3 345 284 272 351 218 243 262 310 315 265 251 359 212 233 231 258 32 206 236 289 235 189 260 279 272 262 261 267 271 259 245 248 257 261 271 192 146 131 161 157 153 155 155
329 339 76 291 349 293 304 300 300 354 274 29 75 347 287 282 315 266 231 239 230 182 233 196 186 190 250 267 306 292 228 241 243 213 219 229 237 141 159 170 182 177 164 160 158